Regional Weather Roundup
Issued by NWS Charleston, WV

Home | Current Version | Previous Version | Graphics & Text | Print | Product List | Glossary On
Versions: 1 2 3 4 5 6 7 8 9 10 11 12 13 14 15 16 17 18 19 20 21 22 23 24 25 26 27 28 29 30 31 32 33 34 35 36 37 38 39 40 41 42 43 44 45 46 47 48 49 50
000
ASUS41 KRLX 311910
RWRRLX
West Virginia Regional Weather Roundup
National Weather Service Charleston WV
300 PM EDT TUE MAY 31 2016

Note: "fair" indicates few or no clouds below 12,000 feet with no
significant weather and/or obstructions to visibility.

WVZ003-312000-
Northern Panhandle of West Virginia

CITY           SKY/WX    TMP DP  RH WIND       PRES   REMARKS
WHEELING         N/A     85  56  37 VRB6      29.99F
$$

WVZ009-312000-
Northwest West Virginia

CITY           SKY/WX    TMP DP  RH WIND       PRES   REMARKS
PARKERSBURG      N/A     85  56  37 NW3       30.01F
$$

WVZ006-312000-
Western West Virginia

CITY           SKY/WX    TMP DP  RH WIND       PRES   REMARKS
HUNTINGTON       N/A     86  56  35 NE10      29.98F
$$

WVZ015-312000-
West Central West Virginia

CITY           SKY/WX    TMP DP  RH WIND       PRES   REMARKS
CHARLESTON       N/A     87  52  29 NE6       29.98F
$$

WVZ022-031-312000-
North Central West Virginia

CITY           SKY/WX    TMP DP  RH WIND       PRES   REMARKS
CLARKSBURG       N/A     84  54  35 CALM      30.00F
MORGANTOWN       N/A     85  52  32 NW5       30.01F
$$

WVZ025-035-042-045-312000-
Southern West Virginia

CITY           SKY/WX    TMP DP  RH WIND       PRES   REMARKS
BECKLEY          N/A     80  55  42 VRB6      30.04F
LOGAN            N/A     84  59  42 NE6       30.01S
BLUEFIELD        N/A     78  57  48 MISG      30.06F
LEWISBURG        N/A     79  57  46 S5        30.04F
$$

WVZ047-312000-
Northern Mountains of West Virginia

CITY           SKY/WX    TMP DP  RH WIND       PRES   REMARKS
ELKINS           N/A     82  53  36 NW8       30.03F
$$

WVZ052-312000-
Eastern Panhandle of West Virginia

CITY           SKY/WX    TMP DP  RH WIND       PRES   REMARKS
MARTINSBURG      N/A     85  54  34 VRB3      29.97F
PETERSBURG       N/A     85  57  37 SE7       30.00F
$$



USA.gov is the U.S. government's official web portal to all federal, state and local government web resources and services.